Tracking 25710 objects as of 5-Jul-2022
HD Live streaming from Space Station
objects crossing your sky now

FENGYUN 1C DEB

Track FENGYUN 1C DEB now!
10-day predictions


NORAD ID: 30484
Int'l Code: 1999-025AGW
Perigee: 576.8 km
Apogee: 649.9 km
Inclination: 99.0 °
Period: 96.8 minutes
Semi major axis: 6984 km
RCS: 0.019 m2 (small)
Launch date: May 10, 1999
Source: People's Republic of China (PRC)
Launch site: Taiyaun Space Center, China (TSC)

Note: This is SATELLITE DEBRIS
aabbcc
Your satellite tracking list
Your tracking list is empty




NASA's NSSDC Master Catalog

Two Line Element Set (TLE):
1 30484U 99025AGW 22185.44583682  .00016675  00000-0  18041-2 0  9993
2 30484  99.0224 352.8353 0052387 139.4588 221.0544 14.87349643821007
Source of the keplerian elements: AFSPC